Change the Weather History Date:

Tuesday, October 22, 2013

  Actual Average Record
Temperature  
Mean Temperature 69 °F -  
Max Temperature 78 °F 68 °F 94 °F (2014)
Min Temperature 60 °F 57 °F 55 °F (2012)
Cooling Degree Days 4    
Growing Degree Days 19 (Base 50)    
Moisture  
Dew Point 57 °F    
Average Humidity 59    
Maximum Humidity 94    
Minimum Humidity 33    
Precipitation  
Precipitation 0.04 in - - ()
Sea Level Pressure  
Sea Level Pressure 29.93 in    
Wind  
Wind Speed 7 mph ()    
Max Wind Speed 20 mph    
Max Gust Speed -    
Visibility 6.1 miles    
Events      
Averages and records for this station are not official NWS values.
T = Trace of Precipitation, MM = Missing Value Source: Averaged Metar Reports

Daily Weather History Graph

Daily Weather History Graph

Search for Another Location

Airport or City:

Trip Planner

Search our weather history database for the weather conditions in past years. The results will help you decide how hot, cold, wet, or windy it might be!

Date:

Astronomy

Oct. 22, 2013 Rise Set
Actual Time 7:33 AM WEST 6:37 PM WEST
Civil Twilight 7:07 AM WEST 7:02 PM WEST
Nautical Twilight 6:38 AM WEST 7:32 PM WEST
Astronomical Twilight 6:08 AM WEST 8:02 PM WEST
Moon 9:11 PM WEST (10/22) 10:44 AM WEST (10/22)
Length of Visible Light 11h 55m
Length of Day
11h 03m
Waning Gibbous, 88% of the Moon is Illuminated
Oct 22
Waning Gibbous
Oct 27
Last Quarter
Nov 3
New
Nov 10
First Quarter
Nov 17
Full

Hourly Weather History & Observations

Time (WEST) Temp. Dew Point Humidity Pressure Visibility Wind Dir Wind Speed Gust Speed Precip Events Conditions
12:00 AM 62.6 °F 60.8 °F 94% 29.95 in - SSW 3.5 mph - N/A   Unknown
1:00 AM 60.8 °F 57.2 °F 88% 29.95 in - West 3.5 mph - N/A   Unknown
2:00 AM 60.8 °F 59.0 °F 94% 29.95 in - ESE 4.6 mph - N/A   Unknown
3:00 AM 62.6 °F 57.2 °F 82% 29.95 in - Variable 2.3 mph - N/A   Unknown
4:00 AM 69 °F 58 °F 58% 29.94 in - WSW 19.6 mph - -  
4:00 AM 69.8 °F 57.2 °F 64% 29.92 in - WSW 19.6 mph - N/A   Unknown
5:00 AM 69.8 °F 57.2 °F 64% 29.92 in - WSW 13.8 mph - N/A   Unknown
6:00 AM 69.8 °F 55.4 °F 60% 29.92 in - WSW 12.7 mph - N/A   Unknown
7:00 AM 67 °F 57 °F 62% 29.95 in 6 mi East 3.5 mph - -   Partly Cloudy
7:00 AM 68.0 °F 57.2 °F 68% 29.95 in 6.2 mi East 3.5 mph - N/A   Scattered Clouds
8:00 AM 68.0 °F 53.6 °F 60% 29.95 in 6.2 mi WSW 4.6 mph - N/A   Mostly Cloudy
9:00 AM 68.0 °F 59.0 °F 73% 29.95 in - Variable 2.3 mph - N/A   Clear
10:00 AM 72 °F 57 °F 50% 29.96 in 6 mi East 2.3 mph - -   Scattered Clouds
10:00 AM 73.4 °F 57.2 °F 57% 29.95 in - East 2.3 mph - N/A   Clear
11:00 AM 73.4 °F 57.2 °F 57% 29.95 in - NNE 3.5 mph - N/A   Clear
12:00 PM 73.4 °F 59.0 °F 61% 29.95 in - ESE 8.1 mph - N/A   Clear
1:00 PM 75 °F 58 °F 44% 29.95 in 6 mi ESE 8.1 mph - -   Scattered Clouds
1:00 PM 75.2 °F 57.2 °F 53% 29.92 in - ESE 8.1 mph - N/A   Clear
2:00 PM 73.4 °F 60.8 °F 65% 29.92 in - East 9.2 mph - N/A   Clear
3:00 PM 75.2 °F 59.0 °F 57% 29.92 in 6.2 mi East 9.2 mph - N/A   Mostly Cloudy
4:00 PM 74 °F 63 °F 60% 29.91 in 6 mi East 10.4 mph - -   Scattered Clouds
4:00 PM 73.4 °F 62.6 °F 69% 29.89 in 6.2 mi East 10.4 mph - N/A   Mostly Cloudy
5:00 PM 78.8 °F 55.4 °F 44% 29.92 in 6.2 mi SW 10.4 mph - N/A   Mostly Cloudy
6:00 PM 77.0 °F 55.4 °F 47% 29.89 in 6.2 mi WSW 8.1 mph - N/A   Mostly Cloudy
7:00 PM 76 °F 54 °F 36% 29.93 in 6 mi WSW 10.4 mph - -   Overcast
7:00 PM 75.2 °F 53.6 °F 47% 29.92 in 6.2 mi WSW 10.4 mph - N/A   Mostly Cloudy
8:00 PM 75.2 °F 53.6 °F 47% 29.92 in 6.2 mi WSW 9.2 mph - N/A   Mostly Cloudy
9:00 PM 75.2 °F 53.6 °F 47% 29.92 in 6.2 mi SW 10.4 mph - N/A   Mostly Cloudy
10:00 PM 76 °F 53 °F 33% 29.96 in 6 mi WSW 11.5 mph - -   Overcast
10:00 PM 75.2 °F 53.6 °F 47% 29.95 in 6.2 mi WSW 11.5 mph - N/A   Mostly Cloudy
11:00 PM 75.2 °F 53.6 °F 47% 29.95 in 6.2 mi West 12.7 mph - N/A   Mostly Cloudy